Погода в Воскресенском

Россия / Ивановская область     56°41′58″N   40°57′56″E
темп.,
°C
ветер,
м/с
пор.,
м/с
влажн.,
%
обл.,
%
осадки,
мм/ч
давл.,
гПа
погр.,
м
23 октября, сб
сб2300:00+6зюз612695 0.0 10001009
03:00+5зюз5127493 0.0 10011047
06:00+5юз51377100 0.0 1001830
09:00+6юз5117593 0.0 10021173
12:00+7юз61072100 0.0 10031319
15:00+8юз496794 0.1 10041277
18:00+6зюз6126987 0.3 10051245
21:00+5зюз5118097 0.4 10061028
24 октября, вс
вс2400:00+3зюз3108778 0.0 1007395
03:00+2зюз399251 0.0 1007327
06:00+2зюз3991100 0.0 1008514
09:00+4зюз3786100 0.0 1008632
12:00+4з3890100 0.1 1009624
15:00+3з4996100 0.4 1010799
18:00+1сз51296100 1.1 1013724
21:000ссз6127783 1.3 10171100
25 октября, пн
пн2500:00−1ссз512835 0.0 1020752
03:00−2ссз411835 0.0 1022566
06:00−2сз310855 0.0 1025436
09:000сз36755 0.0 1027378
12:00+3з345732 0.0 1027877
15:00+3зюз3758100 0.0 1026918
18:00+2юз41066100 0.0 1025652
21:00+1юз5136898 0.0 1023687
26 октября, вт
вт2600:00+1юз51376100 0.0 1022591
03:00+1зюз5128041 0.0 1021559
06:000зюз4138750 0.0 1020462
09:00+1зюз41381100 0.0 1020505
12:00+5зюз51267100 0.0 1019637
15:00+5зюз51268100 0.0 1017700
18:00+3юз41377100 0.0 1018521
21:00+3юз41379100 0.0 1017504
27 октября, ср
ср2700:00+2юз41179100 0.0 1017463
03:00+2юз41283100 0.0 1016419
06:00+1юз41287100 0.0 1015381
09:00+2юз41382100 0.0 1014495
12:00+5юз51369100 0.0 1012655
15:00+4зюз51181100 0.3 1011810
18:00+2зюз41097100 2.3 1012497
21:00+4з41093100 2.4 1012608